Weather History for Casper, WY

Change the Weather History Date:

Sunday, June 30, 2013

  Actual Average Record
Temperature  
Mean Temperature 72 °F 67 °F  
Max Temperature 86 °F 85 °F 102 °F (1990)
Min Temperature 57 °F 50 °F 35 °F (1968)
Degree Days  
Heating Degree Days 0 2  
Month to date heating degree days 72 136  
Since 1 June heating degree days 72 136  
Since 1 July heating degree days 7271 7580  
Cooling Degree Days 7 4  
Month to date cooling degree days 83 53  
Year to date cooling degree days 93 57  
Since 1 June cooling degree days 83 53  
Growing Degree Days 22 (Base 50)    
Moisture  
Dew Point 51 °F    
Average Humidity 63    
Maximum Humidity 100    
Minimum Humidity 25    
Precipitation  
Precipitation 0.19 in 0.04 in 0.34 in (1984)
Month to date precipitation 0.87 1.61  
Year to date precipitation 6.84 6.82  
Snow  
Snow 0.00 in 0.00 in - ()
Month to date snowfall 0.0 0.1  
Since 1 June snowfall 0.0 0.1  
Since 1 July snowfall 85.7 74.9  
Snow Depth 0.00 in    
Sea Level Pressure  
Sea Level Pressure 30.06 in    
Wind  
Wind Speed 6 mph (NE)    
Max Wind Speed 18 mph    
Max Gust Speed 22 mph    
Visibility 9 miles    
Events Rain , Thunderstorm    
T = Trace of Precipitation, MM = Missing Value Source: NWS Daily Summary

Daily Weather History Graph

Daily Weather History Graph

Search for Another Location

Airport:

Trip Planner

Search our weather history database for the weather conditions in past years. The results will help you decide how hot, cold, wet, or windy it might be!

Date:

Astronomy

Jun. 30, 2013 Rise Set
Actual Time 5:30 AM MDT 8:48 PM MDT
Civil Twilight 4:55 AM MDT 9:23 PM MDT
Nautical Twilight 4:09 AM MDT 10:08 PM MDT
Astronomical Twilight 3:14 AM MDT 11:04 PM MDT
Moon 12:38 AM MDT (6/30) 1:59 PM MDT (6/30)
Length of Visible Light 16h 28m
Length of Day
15h 17m
Last Quarter, 45% of the Moon is Illuminated
Jun 30
Last Quarter
Jul 8
New
Jul 15
First Quarter
Jul 22
Full
Jul 29
Last Quarter

Hourly Weather History & Observations

Time (MDT) Temp. Dew Point Humidity Pressure Visibility Wind Dir Wind Speed Gust Speed Precip Events Conditions
12:01 AM 71.6 °F 46.4 °F 41% 30.26 in 10.0 mi ENE 6.9 mph - N/A Thunderstorm Thunderstorm
12:53 AM 61.0 °F 54.0 °F 78% 30.11 in 3.0 mi NNW 15.0 mph - 0.03 in Rain , Thunderstorm Heavy Thunderstorms and Rain
12:57 AM 60.8 °F 53.6 °F 77% 30.32 in 1.8 mi North 6.9 mph - 0.10 in Rain , Thunderstorm Heavy Thunderstorms and Rain
1:10 AM 60.8 °F 55.4 °F 82% 30.32 in 3.0 mi North 17.3 mph 20.7 mph 0.25 in Rain , Thunderstorm Heavy Thunderstorms and Rain
1:43 AM 60.8 °F 57.2 °F 88% 30.28 in 10.0 mi ENE 8.1 mph - 0.32 in Rain Light Rain
1:53 AM 61.0 °F 57.9 °F 90% 30.06 in 10.0 mi SE 8.1 mph - 0.33 in Rain Light Rain
2:53 AM 60.1 °F 55.9 °F 86% 30.01 in 10.0 mi NE 4.6 mph - 0.01 in   Clear
3:04 AM 59.0 °F 57.2 °F 94% 30.22 in 10.0 mi NNE 5.8 mph - N/A   Partly Cloudy
3:53 AM 57.9 °F 57.0 °F 97% 30.02 in 10.0 mi West 6.9 mph - N/A   Partly Cloudy
4:53 AM 59.0 °F 55.9 °F 90% 30.03 in 10.0 mi WNW 4.6 mph - N/A   Scattered Clouds
5:53 AM 59.0 °F - N/A% 30.03 in 10.0 mi South 4.6 mph - N/A   Clear
6:53 AM 60.1 °F - N/A% 30.03 in 10.0 mi SSE 3.5 mph - N/A   Partly Cloudy
7:53 AM 64.0 °F - N/A% 30.03 in 10.0 mi Calm Calm - N/A   Clear
8:53 AM 68.0 °F 61.0 °F 78% 30.04 in 10.0 mi Calm Calm - N/A   Clear
9:53 AM 72.0 °F 57.9 °F 61% 30.04 in 10.0 mi Calm Calm - N/A   Clear
10:53 AM 73.9 °F 55.9 °F 53% 30.03 in 10.0 mi Variable 3.5 mph - N/A   Clear
11:53 AM 78.1 °F 52.0 °F 40% 30.01 in 10.0 mi Calm Calm - N/A   Clear
12:53 PM 81.0 °F 51.1 °F 35% 30.03 in 10.0 mi East 10.4 mph - N/A   Partly Cloudy
1:53 PM 81.0 °F 50.0 °F 34% 30.01 in 10.0 mi Variable 4.6 mph - N/A   Partly Cloudy
2:53 PM 84.0 °F 46.9 °F 27% 29.99 in 10.0 mi Variable 3.5 mph - N/A   Clear
3:53 PM 84.0 °F 46.0 °F 26% 30.00 in 10.0 mi NNE 11.5 mph - N/A   Partly Cloudy
4:53 PM 84.0 °F 44.1 °F 25% 30.00 in 10.0 mi NNE 9.2 mph - N/A   Clear
5:53 PM 82.0 °F 44.1 °F 26% 30.01 in 10.0 mi NNE 18.4 mph 21.9 mph N/A   Clear
6:53 PM 78.1 °F 43.0 °F 29% 30.00 in 10.0 mi NE 6.9 mph - N/A   Clear
7:53 PM 73.0 °F 45.0 °F 37% 30.01 in 10.0 mi North 6.9 mph - N/A   Clear
8:53 PM 66.9 °F 50.0 °F 54% 30.02 in 10.0 mi NNW 5.8 mph - N/A   Clear
9:53 PM 66.9 °F 50.0 °F 54% 30.04 in 10.0 mi ENE 6.9 mph - N/A   Clear
10:53 PM 66.9 °F 48.0 °F 51% 30.04 in 10.0 mi East 5.8 mph - N/A   Partly Cloudy
11:53 PM 66.0 °F 46.0 °F 48% 30.04 in 10.0 mi East 4.6 mph - N/A   Clear